Weather History for Oconto, WI

Change the Weather History Date:

Thursday, February 13, 2014

  Actual Average Record
Temperature  
Mean Temperature 8 °F -  
Max Temperature 23 °F 27 °F 23 °F (2014)
Min Temperature -6 °F 5 °F -6 °F (2014)
Degree Days  
Heating Degree Days 56    
Moisture  
Dew Point 13 °F    
Average Humidity 90    
Maximum Humidity 97    
Minimum Humidity 78    
Precipitation  
Precipitation 0.00 in - - ()
Sea Level Pressure  
Sea Level Pressure 29.66 in    
Wind  
Wind Speed 3 mph (South)    
Max Wind Speed 15 mph    
Max Gust Speed 21 mph    
Visibility 5 miles    
Events      
Averages and records for this station are not official NWS values.
T = Trace of Precipitation, MM = Missing Value Source: NWS Daily Summary

Daily Weather History Graph

Daily Weather History Graph

Search for Another Location

Airport:

Trip Planner

Search our weather history database for the weather conditions in past years. The results will help you decide how hot, cold, wet, or windy it might be!

Date:

Astronomy

Feb. 13, 2014 Rise Set
Actual Time 6:55 AM CST 5:17 PM CST
Civil Twilight 6:24 AM CST 5:47 PM CST
Nautical Twilight 5:50 AM CST 6:21 PM CST
Astronomical Twilight 5:16 AM CST 6:55 PM CST
Moon 4:25 PM CST (2/13) 5:48 AM CST (2/13)
Length of Visible Light 11h 22m
Length of Day
10h 21m
Waxing Gibbous, 99% of the Moon is Illuminated
Feb 13
Waxing Gibbous
Feb 14
Full
Feb 22
Last Quarter
Mar 1
New
Mar 8
First Quarter

Hourly Weather History & Observations

Time (CST) Temp. Windchill Dew Point Humidity Pressure Visibility Wind Dir Wind Speed Gust Speed Precip Events Conditions
12:15 AM -5.1 °F - -8.9 °F 84% 29.97 in 10.0 mi Calm Calm - N/A   Clear
12:35 AM -6.0 °F - -9.6 °F 84% 29.96 in 10.0 mi Calm Calm - N/A   Clear
12:55 AM -4.4 °F - -8.1 °F 84% 29.96 in 10.0 mi Calm Calm - N/A   Clear
1:15 AM -5.1 °F - -8.7 °F 84% 29.96 in 10.0 mi Calm Calm - N/A   Clear
1:35 AM -4.4 °F - -8.0 °F 84% 29.95 in 10.0 mi Calm Calm - N/A   Clear
1:55 AM -4.0 °F - -7.6 °F 85% 29.95 in 10.0 mi Calm Calm - N/A   Clear
2:15 AM -3.5 °F - -7.1 °F 85% 29.93 in 10.0 mi Calm Calm - N/A   Clear
2:30 AM -3.3 °F -11.6 °F -6.9 °F 85% 29.92 in 10.0 mi ESE 3.5 mph - N/A   Clear
2:55 AM -2.0 °F - -5.6 °F 85% 29.91 in 7.0 mi Calm Calm - N/A   Clear
3:15 AM -1.3 °F - -4.9 °F 85% 29.90 in 10.0 mi Calm Calm - N/A   Clear
3:35 AM -0.8 °F - -4.2 °F 85% 29.90 in 10.0 mi Calm Calm - N/A   Clear
3:55 AM -0.6 °F - -4.0 °F 85% 29.90 in 10.0 mi Calm Calm - N/A   Mostly Cloudy
4:15 AM 1.6 °F - -1.8 °F 86% 29.90 in 10.0 mi Calm Calm - N/A   Overcast
4:35 AM 3.4 °F - 0.3 °F 87% 29.89 in 7.0 mi Calm Calm - N/A   Overcast
4:55 AM 4.3 °F - 1.2 °F 87% 29.89 in 7.0 mi Calm Calm - N/A   Overcast
5:15 AM 4.8 °F - 1.8 °F 87% 29.88 in 7.0 mi Calm Calm - N/A   Overcast
5:35 AM 5.7 °F - 3.0 °F 89% 29.87 in 7.0 mi Calm Calm - N/A   Overcast
5:55 AM 6.6 °F - 3.9 °F 89% 29.85 in 7.0 mi Calm Calm - N/A   Overcast
6:15 AM 8.2 °F - 5.9 °F 90% 29.84 in 7.0 mi Calm Calm - N/A   Overcast
6:35 AM 9.1 °F -1.9 °F 6.8 °F 90% 29.81 in 5.0 mi ESE 6.9 mph - N/A   Overcast
6:55 AM 10.6 °F 2.5 °F 8.4 °F 91% 29.81 in 2.5 mi SE 4.6 mph - N/A   Overcast
7:15 AM 12.6 °F 4.8 °F 10.8 °F 92% 29.80 in 3.0 mi SSE 4.6 mph - N/A   Overcast
7:35 AM 14.7 °F 4.8 °F 12.9 °F 93% 29.78 in 4.0 mi SSE 6.9 mph - N/A   Overcast
7:55 AM 15.8 °F 7.2 °F 14.0 °F 93% 29.76 in 5.0 mi SSE 5.8 mph - N/A   Overcast
8:15 AM 16.5 °F 9.4 °F 14.2 °F 90% 29.76 in 7.0 mi SSE 4.6 mph - N/A   Overcast
8:35 AM 17.1 °F 11.7 °F 14.0 °F 88% 29.75 in 10.0 mi South 3.5 mph - N/A   Overcast
8:55 AM 17.6 °F 12.3 °F 13.5 °F 84% 29.73 in 10.0 mi SSE 3.5 mph - N/A   Overcast
9:15 AM 18.5 °F 13.3 °F 14.0 °F 83% 29.72 in 10.0 mi South 3.5 mph - N/A   Overcast
9:35 AM 19.9 °F 13.4 °F 14.9 °F 81% 29.71 in 10.0 mi South 4.6 mph - N/A   Overcast
9:55 AM 20.8 °F 13.2 °F 15.4 °F 80% 29.70 in 3.0 mi SSE 5.8 mph - N/A   Overcast
10:15 AM 21.9 °F 11.0 °F 16.2 °F 78% 29.70 in 1.8 mi South 10.4 mph - N/A   Overcast
10:35 AM 21.7 °F 10.2 °F 18.1 °F 86% 29.68 in 1.0 mi South 11.5 mph 18.4 mph N/A   Overcast
10:55 AM 21.6 °F 8.2 °F 18.3 °F 87% 29.66 in 1.2 mi South 15.0 mph 20.7 mph N/A   Overcast
11:15 AM 20.8 °F 9.7 °F 18.3 °F 90% 29.64 in 0.8 mi South 10.4 mph 18.4 mph N/A   Overcast
11:35 AM 20.8 °F 9.7 °F 18.5 °F 91% 29.62 in 0.2 mi SSE 10.4 mph 19.6 mph N/A   Overcast
11:55 AM 21.2 °F 9.5 °F 19.0 °F 91% 29.60 in 0.2 mi SSE 11.5 mph - N/A   Overcast
12:15 PM 21.2 °F 10.1 °F 18.9 °F 91% 29.58 in 4.0 mi South 10.4 mph 16.1 mph N/A   Overcast
12:35 PM 21.7 °F 11.5 °F 19.2 °F 90% 29.56 in 1.2 mi SSE 9.2 mph 17.3 mph N/A   Overcast
12:55 PM 22.1 °F 13.7 °F 19.4 °F 89% 29.55 in 10.0 mi South 6.9 mph - N/A   Overcast
1:35 PM 22.1 °F 12.8 °F 19.8 °F 91% 29.52 in 3.0 mi South 8.1 mph - N/A   Overcast
1:55 PM 22.1 °F 13.7 °F 19.9 °F 91% 29.51 in 2.5 mi South 6.9 mph - N/A   Overcast
2:15 PM 22.1 °F 13.7 °F 20.1 °F 92% 29.50 in 2.5 mi South 6.9 mph 16.1 mph N/A   Overcast
2:35 PM 22.1 °F 13.7 °F 20.5 °F 93% 29.49 in 2.0 mi South 6.9 mph - N/A   Overcast
2:55 PM 22.1 °F 12.8 °F 20.5 °F 93% 29.49 in 2.5 mi South 8.1 mph - N/A   Overcast
3:15 PM 22.1 °F 12.8 °F 20.3 °F 93% 29.49 in 2.5 mi South 8.1 mph - N/A   Overcast
3:35 PM 22.5 °F 13.2 °F 20.8 °F 93% 29.48 in 3.0 mi South 8.1 mph - N/A   Overcast
3:55 PM 22.6 °F 14.3 °F 20.8 °F 93% 29.48 in 3.0 mi South 6.9 mph - N/A   Overcast
4:15 PM 22.6 °F 13.4 °F 21.0 °F 93% 29.48 in 2.5 mi South 8.1 mph - N/A   Overcast
4:35 PM 22.6 °F 14.3 °F 21.2 °F 94% 29.48 in 2.5 mi South 6.9 mph - N/A   Overcast
4:55 PM 22.6 °F 15.3 °F 21.2 °F 94% 29.48 in 2.5 mi South 5.8 mph - N/A   Overcast
5:15 PM 23.0 °F 14.7 °F 21.7 °F 95% 29.48 in 2.0 mi South 6.9 mph - N/A   Overcast
5:35 PM 23.0 °F 17.0 °F 21.7 °F 95% 29.48 in 3.0 mi South 4.6 mph - N/A   Overcast
5:55 PM 23.0 °F 18.4 °F 21.7 °F 95% 29.48 in 4.0 mi South 3.5 mph - N/A   Overcast
6:15 PM 23.0 °F 18.4 °F 21.9 °F 96% 29.48 in 4.0 mi South 3.5 mph - N/A   Overcast
6:35 PM 23.0 °F 18.4 °F 21.9 °F 96% 29.47 in 3.0 mi South 3.5 mph - N/A   Overcast
6:55 PM 23.0 °F - 21.9 °F 96% 29.47 in 2.0 mi Calm Calm - N/A   Overcast
7:15 PM 23.0 °F - 21.7 °F 95% 29.47 in 1.0 mi Calm Calm - N/A   Overcast
7:35 PM 22.8 °F - 21.6 °F 95% 29.47 in 1.0 mi Calm Calm - N/A   Overcast
7:55 PM 22.5 °F - 21.4 °F 96% 29.47 in 2.0 mi Calm Calm - N/A   Overcast
8:15 PM 21.4 °F - 20.5 °F 96% 29.46 in 2.0 mi Calm Calm - N/A   Overcast
8:35 PM 21.9 °F - 21.2 °F 97% 29.46 in 2.0 mi Calm Calm - N/A   Overcast
8:55 PM 20.8 °F - 19.9 °F 96% 29.46 in 2.0 mi Calm Calm - N/A   Overcast
9:15 PM 20.3 °F - 19.6 °F 97% 29.46 in 1.5 mi Calm Calm - N/A   Mostly Cloudy
9:35 PM 19.8 °F - 18.7 °F 96% 29.46 in 2.5 mi Calm Calm - N/A   Mostly Cloudy
9:55 PM 20.8 °F 16.0 °F 19.9 °F 96% 29.46 in 2.5 mi WNW 3.5 mph - N/A   Overcast
10:15 PM 21.4 °F 16.6 °F 20.3 °F 96% 29.46 in 3.0 mi WNW 3.5 mph - N/A   Overcast
10:35 PM 21.2 °F 16.4 °F 19.9 °F 95% 29.46 in 5.0 mi WNW 3.5 mph - N/A   Mostly Cloudy
10:55 PM 21.2 °F 13.6 °F 19.9 °F 95% 29.47 in 5.0 mi WNW 5.8 mph - N/A   Mostly Cloudy
11:15 PM 21.2 °F 12.6 °F 19.2 °F 92% 29.48 in 5.0 mi WNW 6.9 mph - N/A   Mostly Cloudy
11:35 PM 21.0 °F 12.4 °F 18.1 °F 89% 29.48 in 7.0 mi NW 6.9 mph - N/A   Mostly Cloudy
11:55 PM 21.0 °F 12.4 °F 17.2 °F 85% 29.49 in 7.0 mi WNW 6.9 mph - N/A   Overcast